INTELSAT 33E DEB, 61988

Orbit data source: Space-Track

INTELSAT 33E DEB, 61988 is space debris in GEO originally from a launch on Wed, 24 Aug 2016 UTC launched from the French Guiana (FRGUI). Debris objects in space refer to the collection of defunct objects orbiting the Earth. Examples of debris include non-operational satellites, rocket bodies, and fragments generated from explosions, collisions, or faulty payload assembly.

Loading next visibility...
Identifier
61988, 2016-053E
Orbit
GEO
Country
Flag of USUS / ITSO
Related business
Manufacturer
Boeing/ES
Mission
Spacecraft
Bus & Motor
Unknown
Mass
Unknown
Launch date (UTC)
2016-08-24 (10 years ago)
Launch vehicle
Unknown
Launch site
French Guiana (FRGUI)
Object type
Payload
Rocket body
Debris
Shape & HBR
Unknown shape, 1.1 m
Radar Cross Section
RCS unknown

Expand to show TLE details & history
Last TLE update: 5 days ago

TLE from 5 days ago
0 INTELSAT 33E DEB
1 61988U 16053E   26161.94770638  .00000142  00000-0  00000-0 0  9994
2 61988   1.7140  93.1623 0033051  78.1632 281.5665  0.99840527  5978
Epoch: 2026-06-10T22:44Z
TLE epoch observation values (Epoch: 2026-06-10T22:44:41.831Z)
Latitude
-0.00001°
Longitude
-147.96051°
Altitude
35,880.159 km
Speed
3.072 km/s
True Right ascension
06h 10m 02s
True Declination
0° 00' 00"
Sunlit
Object was in daylight at epoch
Visualization orbit readout
Latitude
Unknown
Longitude
Unknown
Altitude
Unknown
Speed
Unknown
Apparent Right ascension
Unknown
Apparent Declination
Unknown
Sunlit
N/A
Visualization observer readout
Local Sidereal Time
02:36:52
Azimuth
Unknown
Elevation
Unknown
Doppler factor
Unknown
Orbital elements
Apogee altitude
36,048.756 km
Perigee altitude
35,769.23 km
Semi-major axis
42,287.13 km
Eccentricity
0.00331
Inclination
1.714°
RAAN
93.1623°
Arg. of periapsis
78.1632°
True anomaly
281.19515°
Mean anomaly
281.5665°
Eccentric anomaly
281.38086°
Mean motion
0.24959 °/min
Orbital period
1,442.35 mins
BSTAR
0
Loading maneuver chart data...
Computing Atmospheric mass density...
Loading historical data...
Loading historical data...
Loading historical data...
Loading historical data...
Loading historical data...
Loading historical data...
Loading historical data...

Documentation

Showing up to 5 results
|